[[{"header":{"parameterUnit":"m.s-1","parameterCategory":1,"la1":30.2991,"la2":30.254,"lo1":-89.0895,"lo2":-89.0444,"dy":0.0017,"dx":0.0017,"nx":28,"ny":28,"refTime":"2025-07-19T21:00:00:Z","depth":0,"parameterNumber":2,"parameterNumberName":"U-component_of_WINDS"},"data":[0,0,0,0,0,0,0,0,0,0,0,0,0,0,0,0,0,0,0,0,0,0,0,0,0,0,0,0,0,0,0,0,0,0,0,0,0,0,0,0,0,0,0,0,0,0,0,0,0,0,0,0,0,0,0,0,0,0,0.2424,0.2425,0,0.2497,0.2497,0.2498,0.2528,0.2528,0.2528,0.2528,0.2605,0.2607,0.2609,0,0,0,0,0,0,0,0,0,0,0,0,0,0.2314,0.2316,0.2424,0.2425,0.2426,0.2496,0.2497,0.2498,0.2528,0.2528,0.2528,0.2528,0.2604,0.2607,0.2609,0,0,0,0,0,0,0,0,0,0,0,0,0,0.2372,0.2317,0.2424,0.2449,0.2452,0.2496,0.2497,0.2499,0.2529,0.2528,0.2528,0.2528,0.2603,0.2607,0.261,0.2635,0,0,0.262,0.2621,0,0,0,0,0,0,0,0,0.2369,0.2376,0.2445,0.2448,0.2451,0.2503,0.2487,0.2544,0.2529,0.25,0.2528,0.2528,0.2571,0.2577,0.2592,0.2638,0.2642,0.262,0.2622,0.2624,0.2624,0,0,0,0,0,0,0,0.2365,0.2373,0.2453,0.2446,0.245,0.2458,0.2466,0.2498,0.2536,0.2502,0.2505,0.2513,0.2573,0.2588,0.2594,0.2643,0.262,0.2623,0.2625,0.2626,0.2714,0.2714,0,0,0,0,0,0,0.2356,0.237,0.2451,0.2455,0.2408,0.246,0.2469,0.2487,0.2536,0.2543,0.2513,0.2514,0.2583,0.259,0.2596,0.2629,0.2623,0.2627,0.2628,0.2713,0.2714,0.2714,0,0,0,0,0,0,0.2354,0.2363,0.2448,0.2413,0.2424,0.2462,0.2482,0.2488,0.2503,0.2544,0.2551,0.2521,0.2583,0.2592,0.2625,0.2632,0.2628,0.2631,0.2713,0.2714,0.2714,0.2694,0,0,0,0,0,0,0.235,0.2362,0.2371,0.2413,0.2426,0.2474,0.2482,0.249,0.2509,0.2511,0.2553,0.256,0.2583,0.262,0.2628,0.2636,0.2634,0.2713,0.2713,0.2714,0.2694,0.2694,0.2693,0,0,0,0,0,0.2346,0.2363,0.2371,0.2381,0.2438,0.2474,0.2482,0.2507,0.2509,0.2519,0.2545,0.2559,0.263,0.2623,0.2632,0.2642,0.2712,0.2713,0.2714,0.2694,0.2694,0.2693,0,0,0,0,0,0,0.2322,0.2369,0.2379,0.2409,0.2437,0.2479,0.2493,0.2506,0.2535,0.2536,0.2567,0.2577,0.2607,0.2628,0.2619,0.2669,0.2672,0.2675,0.2654,0.2654,0.2653,0.2648,0.2636,0,0,0,0,0,0.232,0.2345,0.2385,0.2408,0.2421,0.2454,0.2471,0.2488,0.2519,0.2531,0.256,0.259,0.2619,0.2638,0.2667,0.2697,0.2707,0.2709,0.2708,0.2708,0.271,0.2728,0.2729,0.2717,0.2717,0.2717,0,0,0.2317,0.2345,0.2359,0.2404,0.2428,0.2453,0.2464,0.2491,0.251,0.2536,0.2569,0.259,0.2626,0.2658,0.2674,0.2676,0.2715,0.2709,0.2708,0.2711,0.2729,0.273,0.2731,0.2718,0.2717,0.2717,0,0,0.2324,0.2347,0.2369,0.2393,0.2429,0.245,0.2456,0.2495,0.2511,0.2544,0.2563,0.2587,0.2637,0.2662,0.2681,0.2697,0.2711,0.2705,0.2703,0.2721,0.2722,0.2723,0.2729,0.2731,0.2707,0.2707,0.2707,0,0.2315,0.2353,0.2379,0.2405,0.2424,0.2447,0.247,0.2492,0.2536,0.2549,0.2551,0.2614,0.2639,0.2677,0.2681,0.2696,0.2703,0.2701,0.2719,0.2721,0.2722,0.2728,0.273,0.2706,0.2706,0.2706,0.2707,0,0.2341,0.2368,0.2382,0.2422,0.2443,0.2467,0.2497,0.2516,0.2531,0.2553,0.2587,0.2618,0.2654,0.2664,0.268,0.2705,0.2705,0.2713,0.2717,0.2722,0.2728,0.2731,0.2705,0.2705,0.2706,0.2706,0,0,0.2335,0.2389,0.2394,0.2413,0.2454,0.2475,0.2501,0.2535,0.255,0.258,0.2602,0.2643,0.2651,0.2672,0.2691,0.2706,0.2717,0.2712,0.2713,0.2712,0.2747,0.2741,0.2743,0.2726,0.2727,0.2727,0.2744,0,0.2348,0.2393,0.2418,0.2453,0.2478,0.2501,0.2523,0.2551,0.2572,0.2597,0.2621,0.265,0.2657,0.267,0.2686,0.2712,0.2724,0.2711,0.2748,0.2749,0.2739,0.2747,0.2741,0.2755,0.2747,0.2747,0.2747,0,0.2369,0.2397,0.2435,0.2473,0.2485,0.2504,0.2538,0.2561,0.2593,0.2608,0.2631,0.265,0.2678,0.268,0.272,0.271,0.2727,0.2742,0.2743,0.2748,0.2749,0.2752,0.276,0.2762,0.2752,0.2751,0.2751,0,0.2361,0.2408,0.2437,0.2453,0.2498,0.2511,0.2531,0.2563,0.2582,0.2612,0.2624,0.2657,0.2675,0.27,0.2727,0.2725,0.2765,0.2768,0.2778,0.2777,0.2786,0.2785,0.2797,0.2795,0.2795,0.2795,0.2795,0,0.2372,0.2395,0.2434,0.2452,0.2478,0.2506,0.2531,0.2553,0.2581,0.2604,0.2626,0.2647,0.2681,0.2707,0.2728,0.2758,0.2766,0.2779,0.2785,0.2778,0.2776,0.2789,0.2789,0.2796,0.2796,0.2796,0.2796,0,0.2368,0.2395,0.2428,0.2468,0.2479,0.2496,0.2531,0.255,0.2572,0.2601,0.2609,0.2644,0.2675,0.2704,0.2747,0.2761,0.2792,0.2798,0.278,0.2783,0.2791,0.279,0.2813,0.2817,0.2812,0.2812,0.2812,0,0.2374,0.2391,0.2433,0.245,0.2469,0.2495,0.2515,0.2543,0.2563,0.2601,0.2615,0.2648,0.2676,0.2725,0.2755,0.2787,0.2795,0.2801,0.28,0.2792,0.2796,0.2794,0.2796,0.28,0.28,0.28,0.28,0,0.2381,0.2394,0.2421,0.2452,0.2475,0.2501,0.2528,0.2541,0.2575,0.2596,0.2627,0.2649,0.2692,0.2724,0.276,0.2781,0.2796,0.28,0.2804,0.2797,0.2786,0.2792,0.278,0.2799,0.2799,0.28,0.28,0.28,0.2383,0.24,0.2432,0.2461,0.2484,0.2509,0.2529,0.2553,0.258,0.2616,0.2631,0.2664,0.2697,0.2746,0.2767,0.2793,0.2796,0.2802,0.2804,0.2805,0.2804,0.2781,0.28,0.28,0.28,0.28,0.28,0,0.2392,0.2413,0.244,0.2477,0.25,0.2512,0.2543,0.2561,0.259,0.2618,0.2645,0.2682,0.2714,0.2745,0.2779,0.2794,0.2802,0.2802,0.2801,0.2806,0.2799,0.2792,0.2795,0.2795,0.2795,0.2795,0.2795,0.2795,0.2399,0.2428,0.2445,0.2486,0.2508,0.254,0.2556,0.258,0.2603,0.2643,0.2669,0.2689,0.2719,0.2755,0.2785,0.2794,0.2805,0.2803,0.2814,0.2806,0.2807,0.2807,0.2801,0.2805,0.2805,0.2819,0.2819,0.282]},{"header":{"parameterUnit":"m.s-1","parameterCategory":1,"la1":30.2991,"la2":30.254,"lo1":-89.0895,"lo2":-89.0444,"dy":0.0017,"dx":0.0017,"nx":28,"ny":28,"refTime":"2025-07-19T21:00:00:Z","depth":0,"parameterNumber":3,"parameterNumberName":"V-component_of_WINDS"},"data":[0,0,0,0,0,0,0,0,0,0,0,0,0,0,0,0,0,0,0,0,0,0,0,0,0,0,0,0,0,0,0,0,0,0,0,0,0,0,0,0,0,0,0,0,0,0,0,0,0,0,0,0,0,0,0,0,0,0,3.0955,3.0955,0,3.0923,3.0922,3.0922,3.0914,3.0914,3.0914,3.0914,3.0877,3.0876,3.0874,0,0,0,0,0,0,0,0,0,0,0,0,0,3.1007,3.1006,3.0956,3.0955,3.0955,3.0923,3.0922,3.0922,3.0914,3.0914,3.0914,3.0914,3.0877,3.0876,3.0874,0,0,0,0,0,0,0,0,0,0,0,0,0,3.0981,3.1006,3.0956,3.0947,3.0946,3.0923,3.0922,3.0922,3.0914,3.0914,3.0914,3.0914,3.0878,3.0876,3.0874,3.0857,0,0,3.0869,3.0868,0,0,0,0,0,0,0,0,3.0982,3.0979,3.0948,3.0947,3.0946,3.0923,3.0927,3.09,3.0913,3.0926,3.0914,3.0915,3.0892,3.0889,3.0882,3.0855,3.0853,3.0869,3.0867,3.0867,3.0866,0,0,0,0,0,0,0,3.0984,3.098,3.0942,3.0948,3.0947,3.0943,3.094,3.0922,3.0907,3.0925,3.0924,3.092,3.0891,3.0883,3.0881,3.0853,3.0869,3.0867,3.0866,3.0865,3.081,3.081,0,0,0,0,0,0,3.0988,3.0982,3.0943,3.0941,3.0965,3.0942,3.0938,3.093,3.0907,3.0904,3.092,3.092,3.0886,3.0883,3.0879,3.0858,3.0867,3.0865,3.0864,3.081,3.081,3.081,0,0,0,0,0,0,3.0989,3.0985,3.0945,3.0961,3.0956,3.0941,3.0931,3.0929,3.0922,3.0904,3.0901,3.0915,3.0886,3.0882,3.0863,3.0856,3.0864,3.0863,3.0811,3.081,3.081,3.0814,0,0,0,0,0,0,3.0991,3.0985,3.0979,3.0961,3.0955,3.093,3.0931,3.0928,3.0919,3.0919,3.0899,3.0896,3.0886,3.0865,3.0861,3.0854,3.0861,3.0811,3.0811,3.081,3.0814,3.0814,3.0813,0,0,0,0,0,3.0992,3.098,3.0979,3.0974,3.0948,3.0929,3.0926,3.0916,3.0918,3.0912,3.0901,3.0896,3.0858,3.0864,3.0858,3.0851,3.0812,3.0811,3.081,3.0815,3.0814,3.0813,0,0,0,0,0,0,3.0996,3.0978,3.0976,3.0958,3.0946,3.0928,3.0919,3.0916,3.0901,3.0901,3.0889,3.0885,3.0866,3.0856,3.0863,3.0833,3.0835,3.0833,3.084,3.0839,3.0838,3.0841,3.086,0,0,0,0,0,3.0995,3.0983,3.0967,3.0953,3.0947,3.0934,3.0926,3.092,3.0906,3.09,3.0888,3.0873,3.0858,3.0848,3.0832,3.0813,3.0808,3.0805,3.0804,3.0804,3.0802,3.0791,3.079,3.0807,3.0807,3.0807,0,0,3.0992,3.0981,3.0974,3.0954,3.0943,3.093,3.093,3.0916,3.0906,3.0898,3.0879,3.0869,3.0852,3.0833,3.0824,3.0824,3.0797,3.0803,3.0803,3.0801,3.079,3.0789,3.0787,3.0806,3.0806,3.0806,0,0,3.0981,3.0971,3.0959,3.0949,3.0933,3.0925,3.0922,3.0905,3.0899,3.0881,3.0875,3.0862,3.0835,3.0824,3.0814,3.0799,3.0795,3.0794,3.0791,3.078,3.0779,3.0778,3.0772,3.077,3.0793,3.0793,3.0793,0,3.0979,3.096,3.0952,3.0939,3.093,3.0924,3.0911,3.0901,3.0881,3.0874,3.0875,3.0843,3.0831,3.0809,3.0805,3.0798,3.0793,3.0797,3.078,3.0779,3.0777,3.0772,3.077,3.0793,3.0793,3.0793,3.0793,0,3.0959,3.0946,3.0937,3.092,3.091,3.0897,3.0886,3.0876,3.0871,3.0863,3.0844,3.0829,3.0812,3.0806,3.08,3.0783,3.0784,3.0783,3.0784,3.0776,3.0771,3.0769,3.0793,3.0793,3.0793,3.0793,0,0,3.0948,3.0928,3.0924,3.0917,3.09,3.0889,3.0875,3.0859,3.0851,3.0838,3.0825,3.0804,3.0803,3.0792,3.0785,3.0776,3.0765,3.0776,3.0775,3.0774,3.0745,3.0746,3.0744,3.0762,3.0762,3.0761,3.0746,0,3.0935,3.0911,3.0904,3.0884,3.0871,3.0866,3.0853,3.0841,3.0833,3.082,3.081,3.0795,3.0795,3.0789,3.078,3.0768,3.0759,3.0769,3.0749,3.0749,3.0754,3.0741,3.0742,3.0729,3.0744,3.0744,3.0744,0,3.0915,3.0903,3.0883,3.0868,3.0862,3.0852,3.0837,3.0825,3.0811,3.0805,3.0794,3.0788,3.0772,3.0775,3.0753,3.0761,3.0752,3.0745,3.0744,3.0742,3.0746,3.0738,3.0724,3.0722,3.074,3.0741,3.0741,0,3.091,3.0888,3.0873,3.0867,3.0849,3.0842,3.0834,3.082,3.0811,3.0797,3.0791,3.0775,3.0767,3.0754,3.0744,3.0747,3.0722,3.0725,3.0717,3.0717,3.0712,3.0712,3.0696,3.0706,3.0706,3.0706,3.0707,0,3.0895,3.0883,3.0871,3.0861,3.0847,3.0838,3.0824,3.0815,3.0803,3.0792,3.0785,3.0774,3.0761,3.0748,3.0739,3.0722,3.0718,3.0713,3.0711,3.0713,3.0714,3.0707,3.0708,3.0706,3.0706,3.0706,3.0706,0,3.0887,3.0878,3.0861,3.0847,3.0842,3.0833,3.0819,3.081,3.0801,3.0786,3.0782,3.0769,3.0753,3.0742,3.0721,3.0715,3.0697,3.0695,3.0702,3.0701,3.0694,3.0695,3.0673,3.067,3.0683,3.0683,3.0682,0,3.0878,3.0868,3.0853,3.0846,3.0838,3.0826,3.0817,3.0808,3.0799,3.0782,3.0774,3.0759,3.0746,3.0721,3.0708,3.0692,3.0689,3.0683,3.0687,3.069,3.0689,3.069,3.0689,3.0682,3.0682,3.0682,3.0682,0,3.0863,3.086,3.0848,3.0835,3.0825,3.0814,3.0803,3.0797,3.0785,3.0775,3.076,3.075,3.073,3.0714,3.0697,3.0687,3.0683,3.0681,3.0678,3.0681,3.0686,3.0683,3.0701,3.0681,3.0682,3.0682,3.0682,3.0682,3.0854,3.0846,3.0834,3.0821,3.0812,3.0802,3.0793,3.0784,3.0771,3.0755,3.075,3.0734,3.072,3.0697,3.0688,3.0674,3.0674,3.0671,3.067,3.0669,3.0669,3.0688,3.0671,3.0671,3.0671,3.0671,3.0671,0,3.084,3.0832,3.0821,3.0806,3.0796,3.0794,3.0781,3.0773,3.0759,3.0747,3.0735,3.0717,3.0702,3.0689,3.0673,3.0665,3.0662,3.0661,3.0661,3.0659,3.067,3.0674,3.0663,3.0663,3.0663,3.0663,3.0663,3.0664,3.0831,3.0817,3.0812,3.0793,3.0785,3.077,3.0763,3.0754,3.0744,3.0725,3.0713,3.0706,3.0693,3.0676,3.0662,3.0658,3.0653,3.0652,3.0648,3.0658,3.0659,3.0659,3.0663,3.0651,3.0651,3.0638,3.0638,3.0638]}]]